Weather History for KI35 - September, 2013

Change the Weather History Date:

Thursday, September 19, 2013

  Actual Average (KLOZ) Record (KLOZ)
Temperature  
Mean Temperature 68 °F 67 °F  
Max Temperature 78 °F 79 °F 92 °F (1978)
Min Temperature 59 °F 56 °F 39 °F (1956)
Degree Days  
Heating Degree Days 0 2  
Month to date heating degree days 11  
Since 1 July heating degree days 12  
Cooling Degree Days 4 4  
Month to date cooling degree days 113  
Year to date cooling degree days 1137  
Growing Degree Days 18 (Base 50)    
Moisture  
Dew Point 62 °F    
Average Humidity 84    
Maximum Humidity 100    
Minimum Humidity 57    
Precipitation  
Precipitation 0.00 in 0.11 in 0.51 in (1968)
Month to date precipitation 2.13  
Year to date precipitation 34.81  
Sea Level Pressure  
Sea Level Pressure 30.16 in    
Wind  
Wind Speed 1 mph (SW)    
Max Wind Speed 6 mph    
Max Gust Speed -    
Visibility 7 miles    
Events      
T = Trace of Precipitation, MM = Missing Value Source: NWS Daily Summary

Daily Weather History Graph

Daily Weather History Graph

Search for Another Location

Airport or City:

Trip Planner

Search our weather history database for the weather conditions in past years. The results will help you decide how hot, cold, wet, or windy it might be!

Date:

Astronomy

Sep. 19, 2013 Rise Set
Actual Time 7:19 AM EDT 7:34 PM EDT
Civil Twilight 6:53 AM EDT 8:00 PM EDT
Nautical Twilight 6:22 AM EDT 8:30 PM EDT
Astronomical Twilight 5:51 AM EDT 9:01 PM EDT
Moon 7:34 PM EDT (9/19) 7:25 AM EDT (9/19)
Length of Visible Light 13h 07m
Length of Day
12h 15m
Full, 100% of the Moon is Illuminated
Sep 19
Full
Sep 26
Last Quarter
Oct 4
New
Oct 11
First Quarter
Oct 18
Full

Hourly Weather History & Observations

Time (EDT) Temp. Dew Point Humidity Pressure Visibility Wind Dir Wind Speed Gust Speed Precip Events Conditions
12:15 AM 60.8 °F 59.0 °F 94% 30.19 in 10.0 mi NE 4.6 mph - N/A   Overcast
12:35 AM 60.8 °F 59.0 °F 94% 30.19 in 10.0 mi NE 3.5 mph - N/A   Overcast
12:55 AM 60.8 °F 59.0 °F 94% 30.18 in 10.0 mi Calm Calm - N/A   Overcast
1:15 AM 60.8 °F 59.0 °F 94% 30.18 in 10.0 mi Calm Calm - N/A   Overcast
1:35 AM 60.8 °F 59.0 °F 94% 30.18 in 10.0 mi Calm Calm - N/A   Mostly Cloudy
1:55 AM 60.8 °F 59.0 °F 94% 30.18 in 10.0 mi Calm Calm - N/A   Mostly Cloudy
2:15 AM 60.8 °F 59.0 °F 94% 30.18 in 10.0 mi Calm Calm - N/A   Overcast
2:35 AM 60.8 °F 59.0 °F 94% 30.18 in 7.0 mi Calm Calm - N/A   Overcast
2:55 AM 60.8 °F 59.0 °F 94% 30.18 in 10.0 mi Calm Calm - N/A   Overcast
3:15 AM 60.8 °F 59.0 °F 94% 30.18 in 7.0 mi Calm Calm - N/A   Overcast
3:35 AM 60.8 °F 59.0 °F 94% 30.17 in 7.0 mi Calm Calm - N/A   Overcast
3:55 AM 60.8 °F 59.0 °F 94% 30.17 in 7.0 mi Calm Calm - N/A   Overcast
4:15 AM 60.8 °F 59.0 °F 94% 30.17 in 5.0 mi Calm Calm - N/A   Overcast
4:35 AM 59.0 °F 59.0 °F 100% 30.17 in 4.0 mi Calm Calm - N/A   Mostly Cloudy
4:55 AM 59.0 °F 59.0 °F 100% 30.17 in 5.0 mi Calm Calm - N/A   Mostly Cloudy
5:15 AM 60.8 °F 59.0 °F 94% 30.17 in 4.0 mi Calm Calm - N/A   Overcast
5:35 AM 60.8 °F 59.0 °F 94% 30.17 in 5.0 mi Calm Calm - N/A   Overcast
5:55 AM 60.8 °F 59.0 °F 94% 30.17 in 5.0 mi Calm Calm - N/A   Overcast
6:15 AM 59.0 °F 59.0 °F 100% 30.18 in 4.0 mi Calm Calm - N/A   Overcast
6:35 AM 59.0 °F 59.0 °F 100% 30.18 in 3.0 mi Calm Calm - N/A   Overcast
6:55 AM 59.0 °F 59.0 °F 100% 30.18 in 2.0 mi Calm Calm - N/A   Overcast
7:15 AM 59.0 °F 59.0 °F 100% 30.19 in 2.0 mi Calm Calm - N/A   Overcast
7:35 AM 59.0 °F 59.0 °F 100% 30.19 in 2.0 mi Calm Calm - N/A   Overcast
7:55 AM 59.0 °F 59.0 °F 100% 30.19 in 0.2 mi Calm Calm - N/A   Overcast
8:15 AM 60.8 °F 59.0 °F 94% 30.19 in 1.5 mi North - - N/A   Overcast
8:35 AM 60.8 °F 59.0 °F 94% 30.19 in 1.5 mi Calm Calm - N/A   Overcast
8:55 AM 62.6 °F 59.0 °F 88% 30.20 in 7.0 mi Calm Calm - N/A   Mostly Cloudy
9:15 AM 62.6 °F 60.8 °F 94% 30.20 in 10.0 mi Calm Calm - N/A   Scattered Clouds
9:35 AM 64.4 °F 60.8 °F 88% 30.21 in 10.0 mi Calm Calm - N/A   Mostly Cloudy
9:55 AM 64.4 °F 60.8 °F 88% 30.21 in 10.0 mi Calm Calm - N/A   Mostly Cloudy
10:15 AM 68.0 °F 60.8 °F 78% 30.21 in 10.0 mi Calm Calm - N/A   Scattered Clouds
10:35 AM 69.8 °F 60.8 °F 73% 30.21 in 10.0 mi Calm Calm - N/A   Clear
10:55 AM 71.6 °F 60.8 °F 69% 30.21 in 10.0 mi SW 3.5 mph - N/A   Clear
11:15 AM 73.4 °F 60.8 °F 65% 30.21 in 10.0 mi SW 4.6 mph - N/A   Scattered Clouds
11:35 AM 71.6 °F 60.8 °F 69% 30.21 in 10.0 mi SW 3.5 mph - N/A   Overcast
11:55 AM 71.6 °F 62.6 °F 73% 30.21 in 10.0 mi WSW 3.5 mph - N/A   Overcast
12:15 PM 73.4 °F 62.6 °F 69% 30.20 in 10.0 mi SW 3.5 mph - N/A   Overcast
12:35 PM 73.4 °F 62.6 °F 69% 30.19 in 10.0 mi SW 4.6 mph - N/A   Overcast
12:55 PM 73.4 °F 62.6 °F 69% 30.19 in 10.0 mi WSW 3.5 mph - N/A   Overcast
1:15 PM 75.2 °F 62.6 °F 65% 30.18 in 10.0 mi WSW 4.6 mph - N/A   Overcast
1:35 PM 73.4 °F 62.6 °F 69% 30.18 in 10.0 mi WSW 3.5 mph - N/A   Overcast
1:55 PM 77.0 °F 62.6 °F 61% 30.17 in 10.0 mi SW 3.5 mph - N/A   Overcast
2:15 PM 77.0 °F 62.6 °F 61% 30.16 in 10.0 mi Calm Calm - N/A   Mostly Cloudy
2:35 PM 78.8 °F 62.6 °F 57% 30.16 in 10.0 mi SW 5.8 mph - N/A   Mostly Cloudy
2:55 PM 77.0 °F 62.6 °F 61% 30.15 in 10.0 mi WSW 5.8 mph - N/A   Mostly Cloudy
3:15 PM 77.0 °F 62.6 °F 61% 30.14 in 10.0 mi WSW 3.5 mph - N/A   Scattered Clouds
3:35 PM 77.0 °F 64.4 °F 65% 30.14 in 10.0 mi SW 4.6 mph - N/A   Scattered Clouds
3:55 PM 78.8 °F 62.6 °F 57% 30.13 in 10.0 mi SW 4.6 mph - N/A   Scattered Clouds
4:15 PM 77.0 °F 62.6 °F 61% 30.13 in 7.0 mi Calm Calm - N/A   Mostly Cloudy
4:35 PM 77.0 °F 62.6 °F 61% 30.13 in 10.0 mi Calm Calm - N/A   Mostly Cloudy
4:55 PM 77.0 °F 64.4 °F 65% 30.13 in 10.0 mi Calm Calm - N/A   Scattered Clouds
5:15 PM 75.2 °F 64.4 °F 69% 30.12 in 10.0 mi East 3.5 mph - N/A   Scattered Clouds
5:35 PM 75.2 °F 64.4 °F 69% 30.12 in 10.0 mi Calm Calm - N/A   Scattered Clouds
5:55 PM 75.2 °F 66.2 °F 73% 30.12 in 10.0 mi East 4.6 mph - N/A   Clear
6:15 PM 73.4 °F 64.4 °F 73% 30.11 in 10.0 mi SE 3.5 mph - N/A   Clear
6:35 PM 73.4 °F 66.2 °F 78% 30.11 in 10.0 mi Calm Calm - N/A   Scattered Clouds
6:55 PM 71.6 °F 68.0 °F 88% 30.11 in 10.0 mi Calm Calm - N/A   Mostly Cloudy
7:15 PM 71.6 °F 68.0 °F 88% 30.11 in 7.0 mi Calm Calm - N/A   Mostly Cloudy
7:35 PM 71.6 °F 66.2 °F 83% 30.11 in 10.0 mi North - - N/A   Scattered Clouds
7:55 PM 71.6 °F 66.2 °F 83% 30.11 in 10.0 mi North - - N/A   Overcast
8:15 PM 69.8 °F 66.2 °F 88% 30.11 in 7.0 mi East 3.5 mph - N/A   Mostly Cloudy
8:35 PM 69.8 °F 66.2 °F 88% 30.11 in 7.0 mi Calm Calm - N/A   Scattered Clouds
8:55 PM 68.0 °F 66.2 °F 94% 30.11 in 5.0 mi Calm Calm - N/A   Clear
9:15 PM 68.0 °F 66.2 °F 94% 30.11 in 5.0 mi Calm Calm - N/A   Clear
9:35 PM 68.0 °F 64.4 °F 88% 30.11 in 3.0 mi Calm Calm - N/A   Clear
9:55 PM 68.0 °F 64.4 °F 88% 30.11 in 3.0 mi Calm Calm - N/A   Clear
10:15 PM 68.0 °F 64.4 °F 88% 30.11 in 2.5 mi Calm Calm - N/A   Clear
10:35 PM 68.0 °F 64.4 °F 88% 30.11 in 2.5 mi Calm Calm - N/A   Clear
10:55 PM 66.2 °F 64.4 °F 94% 30.11 in 1.5 mi Calm Calm - N/A   Mostly Cloudy
11:15 PM 66.2 °F 64.4 °F 94% 30.11 in 0.5 mi Calm Calm - N/A   Overcast
11:35 PM 66.2 °F 64.4 °F 94% 30.12 in 2.0 mi Calm Calm - N/A   Overcast
11:55 PM 66.2 °F 64.4 °F 94% 30.12 in 0.2 mi Calm Calm - N/A   Overcast